Home > Weather > Wood Buffalo > Past weeks

Flag for Canada Weather for the Past 2 Weeks in Wood Buffalo, Alberta, Canada

Now
25 °F

Light snow. Overcast.


Feels Like: 18 °F
Forecast: 20 / 32 °F
Wind: 6 mph from Southeast

Location: Fort Mcmurray

Current Time: Feb 6, 2016 at 5:50:20 AM

Latest Report: Feb 6, 2016 at 5:00 AM


Visibility: 9 mi

Pressure: 29.39 "Hg

Humidity: 93%

Dew point: 23 °F

Location of Wood BuffaloLocation

Historic Weather in Wood Buffalo — Graph

°F

Wood Buffalo Temperature Yesterday

Maximum temperature yesterday: 27 °F (at 3:00 PM)
Minimum temperature yesterday: 7 °F (at 12:00 AM)
Average temperature yesterday: 18 °F

High & Low Weather Summary for the Past Weeks

 TemperatureHumidityPressure
High41 °F (Jan 26, 10:00 PM)100% (Jan 23, 7:03 AM)30.20 "Hg (Jan 23, 7:03 AM)
Low-2 °F (Feb 1, 3:00 AM)53% (Jan 27, 2:00 PM)29.13 "Hg (Jan 29, 2:00 AM)
Average17 °F86%29.84 "Hg
* Reported Jan 22 4:00 AM — Feb 6 4:47 AM, Wood Buffalo, Weather by CustomWeather, © 2016

Note: Actual official high and low records may vary slightly from our data, if they occured in-between our weather recording intervals... More about our weather records

Advertising

Wood Buffalo Weather History for the Previous 24 Hours

 ConditionsComfort  
Time TempWeatherWind HumidityBarometerVisibility
4:47 AM
Sat, Feb 6
23 °FLight snow. Mostly cloudy.3 mph93%29.39 "Hg9 mi
4:00 AM25 °FMostly cloudy.7 mph86%29.39 "Hg9 mi
3:00 AM25 °FOvercast.8 mph86%29.42 "Hg9 mi
2:00 AM25 °FOvercast.8 mph86%29.44 "Hg9 mi
1:00 AM25 °FMostly cloudy.6 mph86%29.46 "Hg9 mi
12:00 AM23 °FOvercast.7 mph93%29.48 "Hg9 mi
11:00 PM
Fri, Feb 5
23 °FMostly cloudy.7 mph93%29.51 "Hg9 mi
10:00 PM23 °FPassing clouds.6 mph93%29.54 "Hg9 mi
9:00 PM23 °FPartly cloudy.6 mph93%29.55 "Hg9 mi
8:00 PM23 °FPartly cloudy.8 mph93%29.58 "Hg9 mi
7:00 PM25 °FOvercast.8 mph93%29.62 "Hg9 mi
6:00 PM27 °FOvercast.7 mph86%29.63 "Hg9 mi
5:00 PM27 °FOvercast.9 mph93%29.66 "Hg9 mi
4:00 PM27 °FOvercast.12 mph93%29.69 "Hg9 mi
3:00 PM27 °FCloudy.14 mph93%29.70 "Hg8 mi
2:03 PM23 °FLight snow. Mostly cloudy.5 mph93%29.75 "Hg2 mi
1:49 PM25 °FLight snow. Overcast.6 mph86%29.76 "Hg2 mi
1:00 PM25 °FOvercast.7 mph86%29.77 "Hg9 mi
12:00 PM23 °FLight snow. Cloudy.12 mph86%29.81 "Hg3 mi
11:01 AM21 °FLight snow. Mostly cloudy.9 mph86%29.84 "Hg6 mi
10:55 AM21 °FLight snow. Mostly cloudy.8 mph86%29.85 "Hg3 mi
10:00 AM19 °FOvercast.12 mph93%29.86 "Hg9 mi
9:00 AM18 °FPartly sunny.10 mph93%29.88 "Hg9 mi
8:00 AM12 °FMostly cloudy.9 mph92%29.92 "Hg9 mi
7:00 AM9 °FMostly cloudy.9 mph92%29.95 "Hg9 mi
6:00 AM9 °FOvercast.8 mph85%29.98 "Hg9 mi
5:57 AM9 °FMostly cloudy.8 mph85%29.98 "Hg9 mi
5:00 AM9 °FOvercast.6 mph92%30.01 "Hg9 mi
Weather by CustomWeather, © 2016

See weather overviewHow to use our weather pages